Terug naar catalogus

STARLINK-38298

ActiefCommunicatieSSO
NORAD 100324·PAYLOAD·🇺🇸 United States

Gelanceerd Aug 12, 2026 vanaf Vandenberg Space Force Base

Loading…

Volgende Passages (komende 24 uur)

TLE

VersSource: Space-Track

Epoch: Sep 14, 2026, 22:47 UTC

1 A0324U 26184Z   26257.94967245  .00015514  00000-0  43071-3 0  9992
2 A0324  97.2835 123.2064 0001336 104.5202 255.6191 15.36983606  6518

Volg STARLINK-38298 in realtime met AllMySat

Download on the App Store